#timestamp,LO_Frequency,Hit,StdDev 
1562349615.3,286046992.1,N
1562349635.1,286046994.0,N
1562349655.9,286046999.6,N
1562349675.7,286047000.2,N
1562349695.5,286047002.5,N
1562349715.4,286047001.4,N
1562349735.2,286047003.3,N
1562349755.1,286047002.0,N
1562349756.0,286047002.0,N
1562349775.8,286047003.0,N
1562349795.6,286047003.5,N
1562349815.5,286047000.4,N
1562349835.3,286046996.7,N
1562349855.2,286046994.3,N
1562349875.9,286046990.9,N
1562349895.7,286046987.4,N
1562349915.6,286046993.2,N
1562349935.4,286046990.7,N
1562349955.2,286046988.9,N
1562349975.1,286046990.8,N
1562349976.0,286046990.8,N
1562349995.8,286046990.3,N
1562350015.7,286046993.6,N
1562350035.5,286046994.9,N
1562350055.3,286046998.6,N
1562350075.2,286046998.3,N
1562350095.0,286046995.1,N
1562350095.9,286046995.1,N
1562350115.7,286046998.6,N
1562350135.6,286047002.2,N
1562350155.4,286047001.4,N
1562350175.3,286047005.2,N
1562350195.1,286047004.6,N
1562350196.0,286047004.6,N
1562350215.8,286047005.4,N
1562350235.7,286047006.8,N
1562350255.5,286047010.2,N
1562350275.3,286047008.0,N
1562350295.2,286047008.8,N
1562350315.0,286047007.2,N
1562350315.9,286047007.2,N
1562350335.8,286047001.2,N
1562350355.6,286047000.9,N
1562350375.4,286046997.5,N
1562350395.3,286046992.1,N
1562350415.1,286046996.2,N
1562350435.8,286047001.2,N
1562350455.7,286046998.3,N
1562350475.5,286047000.4,N
1562350495.4,286047000.2,N
1562350515.2,286046999.8,N
1562350535.0,286047000.4,N
1562350535.9,286047000.4,N
1562350555.8,286046997.8,N
1562350575.6,286046992.8,N
1562350595.5,286046990.9,N
1562350615.3,286046993.0,N
1562350635.1,286046992.8,N
1562350655.9,286046992.2,N
1562350675.7,286046999.3,N
1562350695.6,286046999.8,N
1562350715.4,286047005.6,N
1562350735.2,286047001.5,N
1562350755.1,286047003.1,N
1562350756.0,286047003.1,N
1562350775.8,286047001.3,N
1562350795.7,286047001.1,N
1562350815.5,286047000.4,N
1562350835.3,286047004.8,N
1562350855.2,286047008.0,N
1562350875.9,286047004.5,N
1562350895.7,286047005.1,N
1562350915.6,286047003.9,N
1562350935.4,286046998.3,N
1562350955.3,286047001.6,N
1562350975.1,286047000.0,N
1562350976.0,286047000.0,N
1562350995.8,286047005.8,N
1562351015.7,286047009.1,N
1562351035.5,286047007.7,N
1562351055.3,286047008.1,N
1562351075.2,286047009.3,N
1562351095.0,286047009.9,N
1562351095.9,286047009.9,N
1562351115.8,286047009.9,N
1562351135.6,286047013.9,N
1562351155.4,286047012.1,N
1562351175.3,286047014.0,N
1562351195.1,286047010.9,N
1562351215.8,286047013.2,N
1562351235.7,286047015.0,Y
1562351255.5,286047007.7,P
1562351275.4,286047011.5,P
1562351295.2,286047013.1,P
1562351315.0,286047013.2,Y
1562351315.9,286047013.2,P
1562351335.8,286047005.1,N
1562351355.6,286047006.3,N
1562351375.4,286047006.2,N
1562351395.3,286047007.3,N
1562351415.1,286047002.4,N
1562351435.9,286047000.6,N
1562351455.7,286047001.4,N
1562351475.5,286047003.4,N
1562351495.4,286047004.4,N
1562351515.2,286047000.6,N
1562351535.0,286046995.9,N
1562351536.0,286046995.9,N
1562351555.8,286046997.4,N
1562351575.6,286046998.4,N
1562351595.5,286047002.3,N
1562351615.3,286047003.5,N
1562351635.1,286047003.7,N
1562351655.9,286047004.8,N
1562351675.7,286047007.5,N
1562351695.6,286047005.0,N
1562351715.4,286047007.4,N
1562351735.2,286047006.1,N
1562351755.1,286047009.1,N
1562351756.0,286047009.1,N
1562351775.8,286047004.9,N
1562351795.6,286047004.0,N
1562351815.5,286047004.4,N
1562351835.3,286047001.5,N
1562351855.2,286047003.2,N
1562351875.9,286047006.0,N
1562351895.7,286047001.4,N
1562351915.6,286046999.9,N
1562351935.4,286046997.8,N
1562351955.3,286046992.6,N
1562351975.1,286046991.0,N
1562351976.0,286046991.0,N
1562351995.8,286046988.6,N
1562352015.7,286046992.1,N
1562352035.5,286046993.9,N
1562352055.3,286046997.5,N
1562352075.2,286046997.5,N
1562352095.0,286047000.9,N
1562352095.9,286047000.9,N
1562352115.8,286047002.7,N
1562352135.6,286047002.3,N
1562352155.4,286046998.2,N
1562352175.3,286047000.4,N
1562352195.1,286046998.4,N
1562352215.8,286046996.6,N
1562352235.7,286046991.4,N
1562352255.5,286046985.1,N
1562352275.4,286046979.5,Y
1562352295.2,286046981.1,P
1562352315.0,286046982.9,N
1562352315.9,286046982.9,N
1562352335.8,286046985.1,N
1562352355.6,286046987.9,N
1562352375.5,286046992.6,N
1562352395.3,286046994.5,N
1562352415.1,286046996.0,N
1562352435.9,286046996.5,N
1562352455.7,286047000.7,N
1562352475.5,286047000.3,N
1562352495.4,286047004.4,N
1562352515.2,286047004.4,N
1562352535.0,286047003.8,N
1562352536.0,286047003.8,N
1562352555.8,286047005.8,N
1562352575.6,286047008.8,N
1562352595.5,286047009.1,N
1562352615.3,286047008.5,N
1562352635.1,286047005.6,N
1562352655.9,286047005.7,N
1562352675.7,286047001.8,N
1562352695.6,286046998.1,N
1562352715.4,286047000.9,N
1562352735.2,286046997.4,N
1562352755.1,286046996.4,N
1562352756.0,286046996.4,N
1562352775.8,286046996.8,N
1562352795.6,286046995.7,N
1562352815.5,286046996.8,N
1562352835.3,286046993.3,N
1562352855.2,286046996.1,N
1562352875.9,286046998.9,N
1562352895.7,286046999.8,N
1562352915.6,286046999.7,N
1562352935.4,286046999.7,N
1562352955.2,286047004.0,N
1562352975.1,286047004.3,N
1562352976.0,286047004.3,N
1562352995.8,286047005.9,N
1562353015.7,286047003.6,N
1562353035.5,286047004.4,N
1562353055.3,286046999.3,N
1562353075.2,286047000.2,N
1562353095.0,286047002.5,N
1562353095.9,286047002.5,N
1562353115.7,286047003.5,N
1562353135.6,286047002.1,N
1562353155.4,286047001.7,N
1562353175.3,286047003.8,N
1562353195.1,286047001.5,N
1562353196.0,286047001.5,N
